{"data":{"norad_id":60586,"intl_designator":"2024-150D","name":"STARLINK-32173","alt_names":[],"object_type":"PAYLOAD","status":"ACTIVE","operator":null,"country":"US","launch_date":"2024-08-20","launch_site_code":"AFETR","launch_vehicle":null,"mission":null,"orbit_class":"UNKNOWN","rcs_meters":null,"size_class":null,"mass_kg":null,"dimensions":null,"purposes":["comms"],"wikipedia_slug":null,"has_3d_model":false,"image_url":null,"decayed_at":null,"tle_current":{"epoch":"2026-09-21T21:02:50.010144Z","epoch_age_seconds":69597,"freshness":"FRESH","line1":"1 60586U 24150D   26264.87696771 -.00000071  00000+0  90357-5 0  9995","line2":"2 60586  53.1600 111.1379 0001439  85.9220 274.1947 15.34387186118143","mean_motion":15.34387186,"eccentricity":0.0001439,"inclination_deg":53.16,"raan_deg":111.1379,"arg_perigee_deg":85.922,"mean_anomaly_deg":274.1947,"bstar":9.0357e-6,"rev_number":11814,"period_min":93.848541824306,"perigee_km":461.75692398942,"apogee_km":463.72572877175,"semimajor_km":6840.8783263806,"source":"CELESTRAK","updated_at":"2026-09-22T09:00:49.238956Z"}}}